{"data":{"norad_id":48371,"epoch":"2026-09-19T05:07:48.381888Z","epoch_age_seconds":144777,"freshness":"FRESH","line1":"1 48371U 21038U   26262.21375442 -.00000132  00000+0  75020-5 0  9998","line2":"2 48371  53.1607 167.2727 0001338  95.3809 264.7345 15.31700475296874","mean_motion":15.31700475,"eccentricity":0.0001338,"inclination_deg":53.1607,"raan_deg":167.2727,"arg_perigee_deg":95.3809,"mean_anomaly_deg":264.7345,"bstar":7.502e-6,"rev_number":29687,"period_min":94.013158806391,"perigee_km":469.82219972322,"apogee_km":471.65495882824,"semimajor_km":6848.8755792757,"source":"CELESTRAK","updated_at":"2026-09-20T09:00:38.942211Z"}}